Location: Erlenbrunn
(49.1717°N, 7.6142°E)
Time: 04:39:51
(UTC+00:00)

COSMOS 2428 - Pass Details

Date: 25 November 2020
Orbit: 848 x 855 km, 70.9° (Epoch: 24 January)

Event Time Altitude Azimuth Distance (km) Brightness Sun altitude
Rises 16:55:06 0° 226° (SW) 3,416 7.1 -12.3°
Reaches altitude 10° 16:57:39 10° 232° (SW) 2,484 6.3 -12.7°
Maximum altitude 17:03:09 48° 306° (NW) 1,109 3.6 -13.5°
Drops below altitude 10° 17:08:42 10° 21° (NNE) 2,495 4.8 -14.4°
Enters shadow 17:09:41 - 24° (NNE) 2,852 5.1 -14.6°
